DLR-TUBSAT

Last updated on Thu Oct 30 2025 00:02:30 GMT+0000 (Coordinated Universal Time)

1 25757U 99029B 25302.50440733 .00000234 00000+0 69481-4 0 9993 2 25757 98.6528 285.6611 0013710 336.3103 23.7459 14.52331706399762
UTC large
Height (km)
Speed (km/s)
/
Latitude / Longitude
Inclination (degrees)
Orbital Period (minutes)
Azimuth
Elevation
Range (km)
Doppler Factor

Next 0 passes for location: London (51.5072 / 0.1276)

Sorry there are no passes over London.